QPF
0.00 0.00 0.00 0.00 0.00 0.00 0.00 0.00 0.00 0.01 0.02 0.03 0.03 0.02 0.02 0.02 0.01 0.01 0.01 0.00 0.01 0.01 0.01 0.00 0.01 0.00 0.00 0.00 0.00 0.00 0.00 0.00 0.01 0.01 0.01 0.01 0.01 0.02 0.02 0.04 0.04 0.03 0.03 0.05
0.00 0.00 0.00 0.00 0.00 0.00 0.00 0.00 0.00 0.00 0.01 0.02 0.02 0.02 0.03 0.02 0.01 0.01 0.01 0.01 0.01 0.01 0.01 0.01 0.00 0.00 0.00 0.01 0.00 0.00 0.00 0.00 0.00 0.01 0.01 0.01 0.01 0.02 0.01 0.02 0.04 0.02 0.03 0.03
0.00 0.00 0.00 0.00 0.00 0.00 0.00 0.00 0.00 0.00 0.00 0.01 0.01 0.02 0.02 0.02 0.02 0.02 0.01 0.02 0.02 0.02 0.02 0.01 0.00 0.00 0.00 0.00 0.00 0.00 0.00 0.00 0.00 0.01 0.01 0.01 0.01 0.01 0.01 0.02 0.03 0.02 0.02 0.02
0.00 0.00 0.00 0.00 0.00 0.00 0.00 0.00 0.00 0.00 0.00 0.01 0.01 0.02 0.02 0.02 0.03 0.03 0.03 0.04 0.05 0.03 0.02 0.01 0.01 0.00 0.00 0.00 0.00 0.00 0.00 0.00 0.01 0.01 0.01 0.01 0.01 0.01 0.01 0.01 0.01 0.02 0.03 0.03
0.00 0.00 0.00 0.00 0.00 0.00 0.00 0.00 0.00 0.00 0.00 0.01 0.02 0.03 0.04 0.02 0.02 0.03 0.05 0.08 0.10 0.06 0.03 0.02 0.01 0.01 0.01 0.00 0.00 0.01 0.00 0.00 0.01 0.01 0.01 0.01 0.01 0.01 0.01 0.01 0.01 0.02 0.03 0.03
0.00 0.00 0.00 0.00 0.00 0.00 0.00 0.00 0.00 0.00 0.00 0.00 0.02 0.04 0.06 0.03 0.03 0.04 0.06 0.07 0.06 0.04 0.04 0.05 0.02 0.01 0.01 0.01 0.01 0.01 0.00 0.00 0.01 0.00 0.00 0.01 0.01 0.01 0.02 0.02 0.02 0.02 0.02 0.02
0.00 0.00 0.00 0.00 0.00 0.00 0.00 0.00 0.00 0.00 0.00 0.00 0.01 0.02 0.02 0.02 0.03 0.03 0.03 0.03 0.03 0.03 0.04 0.06 0.07 0.04 0.02 0.02 0.01 0.00 0.00 0.00 0.00 0.00 0.01 0.01 0.01 0.01 0.02 0.02 0.03 0.04 0.03 0.01
0.00 0.00 0.00 0.00 0.00 0.00 0.00 0.00 0.01 0.00 0.00 0.00 0.00 0.00 0.01 0.01 0.03 0.02 0.03 0.04 0.04 0.04 0.04 0.05 0.08 0.05 0.02 0.02 0.01 0.00 0.00 0.00 0.00 0.00 0.00 0.01 0.01 0.02 0.01 0.02 0.03 0.02 0.02 0.01
0.00 0.00 0.00 0.00 0.00 0.00 0.00 0.00 0.00 0.01 0.00 0.00 0.00 0.00 0.01 0.01 0.03 0.02 0.05 0.08 0.09 0.07 0.04 0.03 0.04 0.03 0.02 0.02 0.01 0.01 0.01 0.01 0.01 0.01 0.01 0.01 0.01 0.01 0.02 0.02 0.01 0.01 0.01 0.02
0.00 0.00 0.00 0.00 0.00 0.00 0.00 0.00 0.00 0.00 0.00 0.00 0.00 0.01 0.02 0.01 0.02 0.06 0.15 0.16 0.13 0.07 0.05 0.05 0.05 0.04 0.03 0.02 0.02 0.02 0.02 0.03 0.02 0.02 0.02 0.01 0.01 0.01 0.02 0.02 0.02 0.01 0.01 0.02
0.00 0.00 0.00 0.00 0.00 0.00 0.00 0.00 0.00 0.00 0.00 0.00 0.00 0.01 0.01 0.01 0.01 0.04 0.11 0.13 0.14 0.08 0.07 0.07 0.07 0.07 0.06 0.04 0.05 0.05 0.04 0.05 0.04 0.03 0.03 0.03 0.02 0.03 0.02 0.01 0.01 0.02 0.02 0.03
0.00 0.00 0.00 0.00 0.00 0.00 0.00 0.00 0.00 0.00 0.00 0.00 0.00 0.01 0.01 0.02 0.05 0.09 0.10 0.15 0.16 0.09 0.07 0.08 0.09 0.07 0.06 0.05 0.06 0.07 0.08 0.07 0.05 0.04 0.04 0.04 0.04 0.04 0.03 0.02 0.02 0.03 0.04 0.05
0.00 0.00 0.00 0.00 0.00 0.00 0.00 0.00 0.00 0.00 0.00 0.00 0.00 0.01 0.02 0.02 0.03 0.07 0.14 0.19 0.11 0.05 0.05 0.08 0.11 0.09 0.09 0.08 0.07 0.07 0.07 0.07 0.06 0.05 0.05 0.05 0.04 0.04 0.04 0.03 0.04 0.04 0.04 0.05
0.00 0.00 0.00 0.00 0.00 0.00 0.00 0.00 0.00 0.00 0.00 0.00 0.00 0.01 0.02 0.01 0.02 0.03 0.09 0.12 0.09 0.05 0.05 0.12 0.17 0.17 0.18 0.16 0.12 0.11 0.09 0.07 0.06 0.05 0.05 0.05 0.04 0.04 0.04 0.05 0.06 0.06 0.05 0.05
0.00 0.00 0.00 0.00 0.00 0.00 0.00 0.00 0.00 0.00 0.00 0.00 0.00 0.01 0.02 0.02 0.04 0.07 0.07 0.07 0.08 0.10 0.11 0.12 0.16 0.20 0.22 0.21 0.16 0.12 0.10 0.09 0.09 0.10 0.10 0.07 0.05 0.05 0.05 0.04 0.04 0.03 0.03 0.03
0.00 0.00 0.00 0.00 0.00 0.00 0.00 0.00 0.00 0.00 0.00 0.00 0.01 0.02 0.03 0.03 0.03 0.05 0.07 0.07 0.07 0.08 0.13 0.16 0.19 0.24 0.23 0.21 0.21 0.17 0.10 0.07 0.08 0.12 0.12 0.11 0.07 0.06 0.06 0.06 0.07 0.05 0.04 0.04
0.00 0.00 0.00 0.00 0.00 0.00 0.00 0.00 0.00 0.00 0.00 0.01 0.01 0.02 0.03 0.02 0.03 0.05 0.05 0.06 0.05 0.05 0.07 0.08 0.11 0.15 0.17 0.13 0.13 0.14 0.11 0.09 0.09 0.09 0.08 0.07 0.07 0.08 0.11 0.13 0.11 0.09 0.08 0.07
0.00 0.00 0.00 0.00 0.00 0.00 0.00 0.01 0.01 0.00 0.00 0.01 0.02 0.03 0.03 0.03 0.03 0.03 0.03 0.03 0.02 0.03 0.04 0.06 0.09 0.12 0.14 0.13 0.12 0.13 0.12 0.11 0.09 0.08 0.08 0.08 0.06 0.06 0.07 0.08 0.07 0.07 0.09 0.08
0.00 0.00 0.00 0.00 0.00 0.01 0.01 0.01 0.01 0.01 0.01 0.02 0.06 0.06 0.06 0.06 0.06 0.05 0.03 0.03 0.02 0.02 0.04 0.12 0.19 0.18 0.15 0.12 0.12 0.13 0.15 0.14 0.09 0.07 0.05 0.05 0.05 0.06 0.07 0.07 0.06 0.07 0.08 0.09
0.00 0.00 0.00 0.00 0.00 0.01 0.01 0.01 0.01 0.01 0.02 0.02 0.07 0.09 0.09 0.08 0.09 0.07 0.06 0.06 0.05 0.04 0.04 0.08 0.14 0.14 0.13 0.12 0.11 0.12 0.12 0.14 0.11 0.08 0.06 0.06 0.07 0.07 0.06 0.05 0.06 0.07 0.08 0.09
0.00 0.00 0.00 0.00 0.01 0.01 0.01 0.00 0.01 0.02 0.03 0.04 0.07 0.11 0.11 0.11 0.14 0.14 0.11 0.09 0.14 0.13 0.08 0.06 0.07 0.08 0.10 0.11 0.10 0.09 0.08 0.09 0.10 0.10 0.09 0.09 0.08 0.08 0.07 0.07 0.09 0.10 0.10 0.11
0.01 0.01 0.01 0.01 0.02 0.02 0.01 0.01 0.02 0.03 0.03 0.04 0.06 0.10 0.17 0.18 0.17 0.17 0.16 0.11 0.11 0.20 0.15 0.13 0.13 0.11 0.07 0.06 0.07 0.06 0.07 0.07 0.08 0.07 0.06 0.07 0.10 0.14 0.15 0.15 0.15 0.15 0.15 0.18
0.02 0.03 0.03 0.04 0.04 0.03 0.02 0.02 0.03 0.05 0.05 0.05 0.07 0.10 0.13 0.18 0.17 0.14 0.11 0.09 0.11 0.15 0.16 0.13 0.11 0.15 0.16 0.13 0.12 0.11 0.09 0.09 0.07 0.06 0.06 0.08 0.10 0.13 0.17 0.22 0.24 0.24 0.27 0.28
0.02 0.03 0.04 0.06 0.07 0.05 0.04 0.04 0.04 0.05 0.08 0.11 0.17 0.20 0.18 0.15 0.13 0.13 0.12 0.10 0.10 0.10 0.11 0.08 0.06 0.08 0.15 0.15 0.12 0.12 0.12 0.11 0.13 0.13 0.13 0.12 0.13 0.14 0.14 0.16 0.23 0.25 0.24 0.22
0.04 0.05 0.06 0.09 0.12 0.12 0.10 0.06 0.05 0.04 0.06 0.13 0.19 0.23 0.22 0.16 0.11 0.08 0.07 0.06 0.05 0.05 0.05 0.05 0.04 0.04 0.06 0.07 0.09 0.10 0.09 0.08 0.11 0.14 0.17 0.18 0.18 0.16 0.13 0.12 0.11 0.11 0.13 0.16
0.06 0.08 0.10 0.11 0.12 0.14 0.14 0.12 0.08 0.06 0.04 0.07 0.10 0.12 0.15 0.13 0.10 0.08 0.07 0.06 0.04 0.02 0.02 0.03 0.03 0.03 0.03 0.03 0.04 0.06 0.08 0.09 0.10 0.10 0.12 0.14 0.15 0.14 0.12 0.11 0.10 0.10 0.08 0.08
MSLP
1008.11 1009.12 1009.86 1010.27 1010.39 1010.26 1009.98 1009.65 1009.33 1009.07 1008.90 1008.78 1008.70 1008.61 1008.51 1008.40 1008.29 1008.22 1008.22 1008.32 1008.53 1008.83 1009.18 1009.56 1009.90 1010.19 1010.41 1010.57 1010.69 1010.81 1010.97 1011.16 1011.41 1011.69 1011.98 1012.23 1012.43 1012.55 1012.60 1012.60 1012.60 1012.63 1012.72 1012.92
1008.85 1009.67 1010.20 1010.42 1010.40 1010.21 1009.94 1009.68 1009.46 1009.31 1009.21 1009.11 1008.97 1008.77 1008.50 1008.19 1007.90 1007.69 1007.62 1007.71 1007.96 1008.35 1008.83 1009.31 1009.75 1010.10 1010.34 1010.48 1010.58 1010.67 1010.80 1011.00 1011.28 1011.60 1011.94 1012.25 1012.48 1012.62 1012.67 1012.65 1012.61 1012.60 1012.67 1012.84
1009.25 1009.85 1010.17 1010.24 1010.14 1009.95 1009.77 1009.66 1009.63 1009.65 1009.65 1009.60 1009.41 1009.07 1008.61 1008.08 1007.56 1007.16 1006.96 1006.99 1007.26 1007.73 1008.31 1008.92 1009.48 1009.91 1010.21 1010.38 1010.48 1010.57 1010.69 1010.90 1011.19 1011.55 1011.93 1012.27 1012.53 1012.68 1012.72 1012.68 1012.61 1012.57 1012.61 1012.76
1009.30 1009.68 1009.82 1009.78 1009.67 1009.57 1009.57 1009.68 1009.90 1010.14 1010.30 1010.31 1010.08 1009.60 1008.92 1008.13 1007.35 1006.71 1006.33 1006.25 1006.49 1006.99 1007.66 1008.39 1009.06 1009.60 1009.98 1010.22 1010.35 1010.46 1010.60 1010.82 1011.12 1011.50 1011.90 1012.27 1012.54 1012.70 1012.73 1012.68 1012.59 1012.52 1012.53 1012.66
1009.08 1009.25 1009.25 1009.16 1009.09 1009.15 1009.38 1009.79 1010.29 1010.79 1011.13 1011.21 1010.95 1010.33 1009.43 1008.36 1007.30 1006.39 1005.79 1005.56 1005.71 1006.20 1006.92 1007.73 1008.50 1009.15 1009.63 1009.94 1010.13 1010.28 1010.45 1010.68 1011.01 1011.40 1011.81 1012.19 1012.48 1012.64 1012.67 1012.61 1012.50 1012.42 1012.41 1012.52
1008.73 1008.71 1008.59 1008.48 1008.51 1008.76 1009.25 1009.96 1010.76 1011.50 1012.02 1012.18 1011.89 1011.16 1010.05 1008.72 1007.37 1006.20 1005.36 1004.95 1004.99 1005.43 1006.14 1007.00 1007.84 1008.57 1009.13 1009.52 1009.78 1009.98 1010.18 1010.44 1010.78 1011.19 1011.61 1012.00 1012.29 1012.46 1012.50 1012.45 1012.34 1012.26 1012.24 1012.34
1008.39 1008.19 1007.98 1007.88 1008.00 1008.43 1009.16 1010.13 1011.18 1012.14 1012.81 1013.04 1012.73 1011.89 1010.62 1009.09 1007.50 1006.10 1005.05 1004.47 1004.38 1004.72 1005.40 1006.25 1007.12 1007.90 1008.52 1008.97 1009.28 1009.52 1009.76 1010.05 1010.41 1010.83 1011.27 1011.67 1011.98 1012.17 1012.23 1012.19 1012.11 1012.03 1012.02 1012.11
1008.17 1007.83 1007.53 1007.43 1007.62 1008.18 1009.08 1010.22 1011.45 1012.55 1013.31 1013.58 1013.26 1012.36 1010.99 1009.33 1007.60 1006.04 1004.84 1004.12 1003.91 1004.16 1004.76 1005.56 1006.41 1007.19 1007.82 1008.30 1008.65 1008.93 1009.20 1009.52 1009.90 1010.34 1010.79 1011.21 1011.55 1011.76 1011.86 1011.85 1011.80 1011.74 1011.74 1011.83
1008.16 1007.69 1007.33 1007.20 1007.41 1008.02 1008.98 1010.20 1011.48 1012.62 1013.41 1013.68 1013.36 1012.45 1011.05 1009.35 1007.59 1005.99 1004.73 1003.93 1003.63 1003.79 1004.30 1005.02 1005.80 1006.53 1007.14 1007.61 1007.96 1008.25 1008.54 1008.88 1009.28 1009.73 1010.20 1010.65 1011.01 1011.27 1011.41 1011.45 1011.43 1011.41 1011.43 1011.52
1008.37 1007.81 1007.38 1007.21 1007.39 1007.96 1008.87 1010.03 1011.25 1012.33 1013.07 1013.31 1012.99 1012.11 1010.78 1009.16 1007.48 1005.94 1004.72 1003.93 1003.60 1003.69 1004.10 1004.72 1005.39 1006.03 1006.56 1006.98 1007.30 1007.58 1007.87 1008.21 1008.61 1009.08 1009.56 1010.03 1010.42 1010.72 1010.90 1011.00 1011.03 1011.04 1011.09 1011.18
1008.75 1008.16 1007.69 1007.46 1007.56 1008.02 1008.80 1009.79 1010.84 1011.77 1012.38 1012.57 1012.25 1011.45 1010.25 1008.81 1007.32 1005.96 1004.88 1004.17 1003.86 1003.91 1004.24 1004.73 1005.26 1005.77 1006.18 1006.51 1006.77 1007.00 1007.26 1007.59 1007.98 1008.44 1008.93 1009.40 1009.82 1010.15 1010.37 1010.51 1010.60 1010.66 1010.73 1010.84
1009.23 1008.66 1008.19 1007.92 1007.93 1008.24 1008.82 1009.59 1010.40 1011.11 1011.56 1011.66 1011.36 1010.66 1009.65 1008.46 1007.24 1006.13 1005.26 1004.70 1004.45 1004.48 1004.72 1005.08 1005.46 1005.80 1006.08 1006.28 1006.45 1006.61 1006.82 1007.10 1007.46 1007.89 1008.36 1008.82 1009.24 1009.58 1009.84 1010.02 1010.15 1010.25 1010.36 1010.50
1009.74 1009.24 1008.82 1008.54 1008.48 1008.65 1009.02 1009.53 1010.08 1010.55 1010.82 1010.84 1010.55 1009.97 1009.18 1008.27 1007.35 1006.54 1005.91 1005.52 1005.35 1005.38 1005.54 1005.76 1005.98 1006.15 1006.27 1006.33 1006.38 1006.45 1006.58 1006.80 1007.10 1007.47 1007.89 1008.31 1008.69 1009.03 1009.29 1009.50 1009.68 1009.83 1009.99 1010.16
1010.24 1009.86 1009.53 1009.29 1009.19 1009.25 1009.44 1009.72 1010.02 1010.25 1010.36 1010.29 1010.02 1009.57 1008.99 1008.35 1007.74 1007.21 1006.83 1006.60 1006.51 1006.54 1006.62 1006.71 1006.76 1006.76 1006.71 1006.63 1006.56 1006.52 1006.56 1006.69 1006.91 1007.19 1007.53 1007.87 1008.20 1008.49 1008.75 1008.97 1009.17 1009.37 1009.58 1009.80
1010.70 1010.48 1010.28 1010.12 1010.04 1010.03 1010.09 1010.19 1010.28 1010.33 1010.29 1010.14 1009.89 1009.54 1009.15 1008.76 1008.41 1008.13 1007.95 1007.85 1007.83 1007.84 1007.84 1007.80 1007.70 1007.54 1007.34 1007.13 1006.93 1006.79 1006.73 1006.76 1006.87 1007.05 1007.27 1007.51 1007.75 1007.97 1008.19 1008.41 1008.63 1008.86 1009.12 1009.41
1011.16 1011.11 1011.05 1011.01 1010.98 1010.96 1010.95 1010.92 1010.86 1010.76 1010.60 1010.40 1010.15 1009.89 1009.64 1009.43 1009.28 1009.19 1009.15 1009.15 1009.15 1009.12 1009.04 1008.89 1008.66 1008.37 1008.04 1007.72 1007.43 1007.19 1007.03 1006.96 1006.95 1007.01 1007.10 1007.21 1007.33 1007.47 1007.63 1007.81 1008.04 1008.30 1008.61 1008.95
1011.67 1011.75 1011.84 1011.90 1011.95 1011.96 1011.92 1011.82 1011.66 1011.46 1011.21 1010.96 1010.71 1010.49 1010.33 1010.24 1010.21 1010.23 1010.28 1010.31 1010.31 1010.24 1010.08 1009.83 1009.50 1009.11 1008.70 1008.30 1007.94 1007.63 1007.40 1007.22 1007.11 1007.03 1006.99 1006.97 1006.96 1006.99 1007.07 1007.21 1007.42 1007.70 1008.04 1008.43
1012.26 1012.44 1012.62 1012.78 1012.90 1012.94 1012.89 1012.76 1012.55 1012.27 1011.97 1011.66 1011.40 1011.19 1011.07 1011.03 1011.05 1011.11 1011.18 1011.21 1011.17 1011.05 1010.82 1010.50 1010.10 1009.66 1009.21 1008.77 1008.37 1008.03 1007.74 1007.50 1007.29 1007.11 1006.93 1006.78 1006.65 1006.57 1006.56 1006.63 1006.80 1007.07 1007.43 1007.85
1012.95 1013.16 1013.40 1013.61 1013.76 1013.82 1013.77 1013.62 1013.36 1013.04 1012.68 1012.34 1012.04 1011.82 1011.69 1011.64 1011.66 1011.71 1011.75 1011.74 1011.66 1011.48 1011.21 1010.84 1010.41 1009.96 1009.50 1009.07 1008.68 1008.34 1008.03 1007.75 1007.47 1007.20 1006.92 1006.65 1006.41 1006.22 1006.12 1006.12 1006.24 1006.48 1006.82 1007.24
1013.70 1013.90 1014.12 1014.33 1014.48 1014.53 1014.47 1014.28 1013.99 1013.63 1013.23 1012.84 1012.51 1012.25 1012.09 1012.00 1011.98 1011.99 1011.98 1011.92 1011.78 1011.56 1011.25 1010.87 1010.44 1010.01 1009.58 1009.19 1008.84 1008.52 1008.23 1007.94 1007.63 1007.31 1006.96 1006.60 1006.27 1005.99 1005.80 1005.72 1005.77 1005.96 1006.25 1006.64
1014.45 1014.58 1014.75 1014.91 1015.01 1015.03 1014.93 1014.71 1014.38 1013.98 1013.55 1013.13 1012.76 1012.46 1012.24 1012.11 1012.04 1011.98 1011.91 1011.80 1011.62 1011.36 1011.03 1010.66 1010.26 1009.86 1009.49 1009.16 1008.87 1008.60 1008.34 1008.07 1007.77 1007.42 1007.04 1006.63 1006.23 1005.88 1005.62 1005.46 1005.44 1005.54 1005.77 1006.10
1015.08 1015.13 1015.22 1015.30 1015.33 1015.29 1015.14 1014.88 1014.53 1014.10 1013.65 1013.20 1012.80 1012.47 1012.22 1012.04 1011.91 1011.80 1011.67 1011.51 1011.29 1011.01 1010.68 1010.32 1009.95 1009.60 1009.29 1009.03 1008.80 1008.59 1008.39 1008.15 1007.87 1007.54 1007.15 1006.72 1006.29 1005.89 1005.56 1005.34 1005.23 1005.25 1005.40 1005.64
1015.50 1015.47 1015.47 1015.46 1015.42 1015.31 1015.12 1014.83 1014.46 1014.02 1013.57 1013.12 1012.72 1012.37 1012.10 1011.88 1011.71 1011.55 1011.38 1011.18 1010.93 1010.64 1010.31 1009.96 1009.63 1009.33 1009.07 1008.86 1008.69 1008.54 1008.39 1008.20 1007.95 1007.65 1007.27 1006.85 1006.41 1005.98 1005.61 1005.32 1005.14 1005.07 1005.12 1005.27
1015.64 1015.54 1015.46 1015.39 1015.28 1015.13 1014.90 1014.60 1014.23 1013.82 1013.39 1012.97 1012.58 1012.25 1011.97 1011.74 1011.55 1011.36 1011.16 1010.93 1010.66 1010.35 1010.02 1009.69 1009.37 1009.10 1008.88 1008.71 1008.58 1008.47 1008.36 1008.21 1008.00 1007.73 1007.38 1006.98 1006.54 1006.10 1005.70 1005.36 1005.11 1004.96 1004.91 1004.97
1015.48 1015.34 1015.21 1015.09 1014.94 1014.76 1014.53 1014.25 1013.91 1013.54 1013.16 1012.79 1012.45 1012.15 1011.90 1011.68 1011.48 1011.27 1011.05 1010.80 1010.52 1010.20 1009.87 1009.53 1009.23 1008.97 1008.76 1008.60 1008.49 1008.40 1008.31 1008.18 1008.01 1007.76 1007.44 1007.05 1006.63 1006.18 1005.76 1005.38 1005.07 1004.85 1004.73 1004.70
1015.07 1014.90 1014.75 1014.60 1014.45 1014.27 1014.06 1013.82 1013.54 1013.24 1012.93 1012.63 1012.35 1012.10 1011.89 1011.68 1011.49 1011.29 1011.06 1010.79 1010.50 1010.17 1009.83 1009.49 1009.18 1008.91 1008.70 1008.54 1008.42 1008.33 1008.24 1008.12 1007.95 1007.71 1007.41 1007.04 1006.62 1006.17 1005.73 1005.32 1004.97 1004.70 1004.51 1004.41
Thickness
5845 5826 5815 5824 5832 5831 5826 5818 5814 5827 5844 5835 5825 5823 5830 5835 5832 5829 5826 5825 5824 5823 5825 5824 5822 5818 5813 5808 5804 5800 5796 5793 5790 5785 5780 5776 5773 5774 5774 5774 5773 5771 5770 5768
5818 5813 5834 5843 5843 5837 5828 5815 5815 5828 5843 5833 5822 5820 5830 5835 5834 5835 5831 5828 5827 5824 5823 5823 5821 5818 5814 5810 5807 5803 5800 5797 5794 5790 5786 5782 5779 5777 5776 5776 5774 5773 5771 5769
5808 5825 5845 5840 5834 5827 5824 5818 5818 5820 5831 5830 5820 5809 5818 5831 5837 5838 5838 5835 5833 5831 5826 5824 5822 5820 5817 5813 5811 5809 5804 5801 5798 5794 5789 5785 5780 5777 5775 5774 5774 5774 5772 5770
5816 5834 5837 5831 5829 5830 5816 5837 5835 5828 5810 5798 5807 5777 5804 5819 5824 5831 5833 5833 5833 5835 5833 5828 5826 5822 5820 5818 5817 5813 5808 5804 5800 5797 5791 5786 5780 5775 5776 5776 5775 5775 5773 5771
5811 5830 5828 5824 5834 5839 5832 5847 5837 5827 5808 5792 5797 5782 5792 5813 5811 5823 5832 5836 5838 5837 5836 5833 5830 5828 5825 5823 5819 5815 5810 5806 5802 5799 5794 5789 5785 5782 5780 5778 5776 5775 5774 5773
5820 5839 5839 5838 5849 5849 5845 5834 5821 5806 5789 5770 5789 5782 5782 5803 5815 5825 5835 5840 5840 5839 5838 5836 5834 5830 5826 5824 5820 5816 5810 5806 5804 5800 5796 5792 5788 5784 5780 5777 5775 5774 5773 5772
5804 5822 5838 5847 5833 5837 5830 5797 5768 5763 5752 5760 5789 5783 5787 5821 5834 5836 5838 5840 5842 5842 5838 5834 5830 5827 5825 5822 5820 5816 5811 5806 5804 5801 5797 5794 5791 5787 5782 5779 5777 5774 5772 5771
5778 5784 5821 5836 5829 5820 5819 5797 5764 5749 5745 5758 5779 5776 5799 5833 5842 5844 5844 5843 5843 5842 5839 5836 5834 5831 5827 5824 5820 5816 5812 5808 5805 5802 5799 5796 5792 5789 5785 5783 5780 5777 5775 5773
5775 5783 5824 5838 5844 5833 5815 5803 5798 5770 5761 5751 5761 5782 5807 5828 5830 5835 5837 5836 5836 5838 5838 5834 5833 5832 5829 5825 5822 5819 5813 5809 5806 5803 5799 5795 5792 5789 5786 5784 5781 5779 5776 5775
5792 5782 5806 5829 5837 5835 5828 5815 5784 5765 5746 5738 5753 5768 5778 5802 5810 5821 5825 5828 5830 5833 5833 5832 5831 5830 5828 5826 5822 5819 5815 5811 5807 5804 5800 5796 5792 5790 5788 5784 5781 5778 5776 5774
5794 5776 5787 5804 5806 5804 5810 5804 5786 5765 5759 5741 5736 5757 5802 5805 5811 5814 5819 5824 5828 5829 5829 5828 5829 5829 5826 5823 5818 5815 5812 5808 5805 5802 5799 5796 5792 5790 5787 5784 5781 5779 5776 5774
5789 5770 5763 5783 5809 5821 5813 5803 5784 5763 5757 5751 5743 5758 5810 5811 5814 5815 5817 5821 5825 5826 5823 5822 5824 5822 5819 5816 5813 5811 5808 5805 5803 5801 5798 5795 5792 5789 5786 5783 5781 5779 5776 5774
5783 5760 5744 5754 5774 5795 5796 5798 5790 5774 5758 5747 5740 5758 5803 5804 5806 5811 5814 5815 5816 5816 5814 5813 5814 5813 5812 5809 5807 5806 5804 5802 5801 5799 5795 5792 5789 5786 5783 5781 5779 5777 5774 5771
5785 5753 5743 5739 5750 5770 5777 5788 5790 5773 5751 5748 5755 5764 5782 5790 5794 5800 5805 5807 5806 5806 5805 5803 5802 5803 5804 5803 5801 5799 5799 5797 5796 5794 5790 5787 5785 5783 5781 5778 5776 5774 5772 5768
5769 5748 5754 5758 5770 5776 5777 5781 5785 5776 5768 5757 5762 5766 5775 5784 5789 5793 5797 5797 5797 5795 5795 5795 5794 5793 5795 5793 5793 5793 5793 5792 5790 5786 5784 5783 5783 5781 5777 5774 5773 5771 5769 5766
5751 5743 5746 5749 5764 5767 5765 5773 5777 5774 5772 5767 5766 5763 5779 5784 5786 5787 5788 5788 5786 5785 5785 5786 5787 5786 5785 5784 5783 5782 5784 5785 5784 5779 5777 5777 5776 5774 5771 5769 5767 5766 5764 5763
5735 5731 5725 5723 5743 5748 5737 5755 5762 5761 5764 5764 5754 5761 5772 5772 5774 5776 5779 5779 5779 5779 5778 5778 5779 5777 5776 5776 5776 5774 5775 5775 5774 5772 5771 5770 5769 5767 5765 5764 5760 5758 5758 5756
5729 5720 5710 5710 5721 5710 5731 5758 5762 5755 5754 5760 5759 5762 5765 5766 5769 5771 5773 5772 5771 5773 5772 5771 5771 5771 5769 5769 5770 5769 5768 5766 5765 5764 5764 5763 5762 5760 5758 5756 5754 5752 5751 5750
5731 5718 5702 5695 5696 5707 5730 5745 5749 5741 5734 5747 5749 5752 5755 5760 5758 5755 5761 5763 5763 5764 5765 5765 5765 5764 5762 5762 5763 5763 5761 5760 5758 5757 5757 5758 5756 5753 5751 5749 5748 5747 5745 5744
5719 5713 5698 5690 5688 5688 5713 5739 5751 5740 5715 5735 5742 5743 5745 5747 5732 5734 5747 5750 5751 5752 5753 5754 5755 5754 5753 5754 5754 5753 5750 5748 5747 5747 5748 5749 5748 5746 5744 5743 5742 5741 5739 5737
5691 5689 5685 5681 5679 5689 5714 5733 5738 5708 5705 5726 5731 5733 5734 5731 5731 5733 5737 5739 5740 5741 5742 5743 5742 5740 5741 5743 5743 5739 5737 5737 5738 5740 5741 5741 5740 5738 5738 5736 5734 5732 5730 5729
5674 5672 5671 5670 5667 5675 5710 5716 5707 5702 5715 5719 5721 5723 5724 5724 5726 5727 5727 5725 5727 5728 5729 5729 5727 5726 5729 5732 5730 5728 5726 5729 5729 5729 5729 5729 5729 5730 5729 5726 5724 5723 5721 5719
5668 5669 5668 5669 5669 5685 5697 5699 5703 5706 5706 5709 5710 5713 5715 5713 5713 5714 5714 5713 5715 5717 5716 5717 5717 5716 5716 5718 5718 5714 5716 5717 5717 5717 5717 5718 5717 5717 5716 5714 5713 5712 5710 5707
5663 5669 5664 5663 5669 5678 5686 5691 5694 5697 5697 5700 5702 5704 5705 5704 5703 5702 5701 5701 5702 5703 5702 5704 5703 5703 5702 5704 5704 5704 5704 5705 5704 5704 5705 5705 5704 5702 5702 5703 5703 5702 5699 5697
5651 5656 5652 5653 5661 5667 5673 5678 5682 5687 5690 5691 5691 5693 5693 5692 5692 5691 5690 5690 5689 5689 5691 5691 5690 5690 5690 5691 5692 5693 5693 5693 5693 5694 5694 5695 5695 5693 5691 5691 5690 5691 5689 5689
5643 5644 5642 5642 5651 5652 5657 5667 5674 5675 5676 5679 5680 5681 5683 5683 5681 5680 5679 5680 5679 5679 5679 5678 5678 5678 5679 5679 5680 5681 5682 5682 5682 5682 5683 5683 5683 5682 5680 5679 5677 5678 5677 5677